Regional Weather Roundup
Issued by NWS Portland, ME

Home | Current Version | Previous Version | Text Only | Print | Product List | Glossary On
Versions: 1 2 3 4 5 6 7 8 9 10 11 12 13 14 15 16 17 18 19 20 21 22 23 24 25 26 27 28 29 30 31 32 33 34 35 36 37 38 39 40 41 42 43 44 45 46 47 48 49 50
000
ASUS41 KGYX 310810
RWRGYX
WEATHER ROUNDUP FOR MAINE AND NEW HAMPSHIRE
NATIONAL WEATHER SERVICE GRAY ME
400 AM EDT FRI JUL 31 2015

MEZ002-005-006-010-012-015-018-020-021-024-026-027-029-310900-
MAINE

CITY           SKY/WX    TMP DP  RH WIND       PRES   REMARKS
PORTLAND       CLEAR     71  69  93 W7        29.72S
SANFORD        CLEAR     66  63  88 W3        29.76S
BAR HARBOR     CLOUDY    66  66 100 SW3       29.70S
WISCASSET      FOG       64  63  96 CALM      29.73S VSB 1
ROCKLAND       CLOUDY    66  66 100 W6        29.69S VSB 1/4
FRYEBURG       CLEAR     66  65  96 VRB5      29.75R
LEWISTONAUBURN CLOUDY    63  61  94 CALM      29.73S VSB 1/2
AUGUSTA        CLEAR     69  66  90 CALM      29.71S
WATERVILLE     MOCLDY    66  63  88 CALM      29.68S VSB 1/2
BANGOR         FOG       66  66 100 CALM      29.69S VSB 1/8
GREENVILLE       N/A     65  63  93 CALM      29.69S
MILLINOCKET    CLOUDY    66  65  96 CALM      29.67S FOG
HOULTON        CLOUDY    67  66  97 S6        29.64S FOG
PRESQUE ISLE   CLEAR     66  63  88 S8        29.62S
FRENCHVILLE    LGT RAIN  65  64  97 S6        29.61S VSB 1/2
CARIBOU        CLEAR     66  65  96 S6        29.61S FOG
$$

NHZ002-005-008-009-011-012-014-310900-
NEW HAMPSHIRE

CITY           SKY/WX    TMP DP  RH WIND       PRES   REMARKS
PORTSMOUTH     CLEAR     69  67  93 SW5       29.74S
ROCHESTER      CLEAR     68  65  90 VRB3      29.75S
MANCHESTER     CLEAR     69  64  84 CALM      29.76S
CONCORD        CLEAR     65  61  87 CALM      29.78R
LACONIA        CLEAR     66  61  82 CALM      29.77S
PLYMOUTH       FOG       63  63 100 CALM      29.77F VSB 1/2
BERLIN         MOCLDY    58  57  97 CALM      29.77S FOG
WHITEFIELD     PTCLDY    60  57  89 CALM      29.78S FOG
JAFFREY        CLEAR     63  61  93 CALM      29.82F
KEENE          PTCLDY    61  57  88 CALM      29.81S
LEBANON        MOCLDY    61  58  90 CALM      29.78F FOG
MT WASHINGTON  FOG       48  48 100 NW60        N/A  VSB 0
$$

VTZ005-007-008-310900-
VERMONT

CITY           SKY/WX    TMP DP  RH WIND       PRES   REMARKS
ST JOHNSBURY     N/A     64  62  93 MISG      29.75S
MONTPELIER     CLEAR     59  55  87 S3        29.81F
BURLINGTON     PTCLDY    67  58  72 W3        29.75S
$$

MAZ007-012-024-CTZ003-RIZ002-NYZ038-NYZ072-310900-
SOUTHERN NEW ENGLAND AND NY

CITY           SKY/WX    TMP DP  RH WIND       PRES   REMARKS
BOSTON         PTCLDY    73  66  78 W7        29.77F
WORCESTER      CLEAR     67  65  93 W8        29.83S
NANTUCKET      MOCLDY    73  71  93 W7        29.79S
PROVIDENCE     PTCLDY    73  71  93 W5        29.79F
HARTFORD       PTCLDY    67  66  97 CALM      29.80S FOG
ALBANY         PTCLDY    69  60  73 W7        29.81F
NEW YORK CITY  PTCLDY    76  66  71 NW8       29.83R
$$

ANZ081-ANZ082-ANZ150-NHZ014-MEZ023>029-310900-
COASTAL MARINE OBSERVATIONS

STATION/POSITION TIME  TEMP    WIND        PRES    WAVE
                       AIR SEA DIR/SP/G            HT/PER
                 (UTC) (F)     (DEG/KT/KT) (MB)    (FT/S)
MOUNT DESERT ROC 0800   58     240/ 16/ 16 1006.1S
MATINICUS ROCK   0700   60     250/ 18/ 19 1006.0R
ISLE OF SHOALS   0700   71     250/ 16/ 16 1006.8F
JEFFREYS LEDGE   0703      65                N/A     3/ 9
CASHES LEDGE BUO 0750   67                 1006.6S   4/ 6
GEORGES BANK BUO 0750   70 65  200/ 10/ 12 1009.7F   4/ 9
$$

.............KEY..............
   WCI - WIND CHILL
   TC  - TEMPERATURE IN CELSIUS
   VSB - VISIBILITY IN MILES
   HX  - HEAT INDEX
   FAIR- INDICATES FEW OR NO CLOUDS BELOW 12,000 FT, WITH NO
         SIGNIFICANT WEATHER AND/OR OBSTRUCTIONS TO VISIBILITY.




USA.gov is the U.S. government's official web portal to all federal, state and local government web resources and services.